Regional Weather Roundup
Issued by NWS

Home | Current Version | Previous Version | Graphics & Text | Print | Product List | Glossary Off
Versions: 1 2 3 4 5 6 7 8 9 10 11 12 13 14 15 16 17 18 19 20 21 22 23 24 25 26 27 28 29 30 31 32 33 34 35 36 37 38 39 40 41 42 43 44 45 46 47 48 49 50

000
ASUS44 KMEG 270010
RWRTN
TENNESSEE HOURLY STATE WEATHER ROUNDUP
NATIONAL WEATHER SERVICE MEMPHIS TN
600 PM CST WED NOV 26 2014

TNZ002-004-019-021-049-052-054-088>092-270100-
WEST TENNESSEE

CITY           SKY/WX    TMP DP  RH WIND       PRES   REMARKS
MEMPHIS INTL   MOCLDY    46  34  62 W7        30.12R
NWS MEMPHIS      N/A     44 N/A N/A MISG        N/A
JACKSON        CLEAR     44  33  65 W14G21    30.07R
DYERSBURG      FAIR      39  25  56 W6        30.09R WCI  35
UNION CITY     MOCLDY    37  36  93 W9        30.04R WCI  31
PARIS          CLOUDY    37  36  93 SW8       30.02R WCI  31
HUNTINGDON     CLOUDY    40  35  82 W14       30.03R WCI  32
LEXINGTON      CLOUDY    45  34  65 SW9       30.01R
SAVANNAH       CLOUDY    45  34  65 SW6       30.05R
$$

TNZ008-025-027-028-033-062-065-066-270100-
NORTH MIDDLE TENNESSEE

CITY           SKY/WX    TMP DP  RH WIND       PRES   REMARKS
NASHVILLE      LGT RAIN  44  36  73 SW14G22   30.03R
CLARKSVILLE    RAIN      40  37  89 SW5       30.03R FOG
SMYRNA         LGT RAIN  44  36  73 W13       30.04R
COOKEVILLE     CLEAR     43  27  52 SE5       29.97F
CROSSVILLE     CLOUDY    42  23  46 SE3       29.99F
$$

TNZ061-075-076-078-094-096-097-270100-
SOUTH MIDDLE TENNESSEE

CITY           SKY/WX    TMP DP  RH WIND       PRES   REMARKS
FAYETTEVILLE   MOCLDY    45  34  65 MISG      30.02R
TULLAHOMA      CLOUDY    45  30  57 SW7       30.02R
WINCHESTER     CLOUDY    46  28  49 S14       30.03R
MCMINNVILLE    MOCLDY    45  28  53 SW3G14    30.01R
COLUMBIA       CLOUDY    45  43  93 S7        30.00S
SHELBYVILLE    CLOUDY    45  37  76 SW15      30.04R
$$

TNZ017-018-042-046-047-270100-
NORTHEAST TENNESSEE

CITY           SKY/WX    TMP DP  RH WIND       PRES   REMARKS
TRI CITIES     CLOUDY    38  36  92 N3        30.01R
ELIZABETHTON   CLEAR     32  30  93 CALM      30.01R
$$

TNZ012-013-036-069-073-074-270100-
CENTRAL EAST TENNESSEE

CITY           SKY/WX    TMP DP  RH WIND       PRES   REMARKS
KNOXVILLE      CLOUDY    44  28  53 SW9       30.03S
OAK RIDGE      CLOUDY    48  22  35 SW3       30.04S
GATLINBURG     PTCLDY    46  23  39 SW3       30.03S
MORRISTOWN     CLEAR     46  25  42 SW8       30.02S
$$

TNZ083-085-099-270100-
SOUTHEAST TENNESSEE

CITY           SKY/WX    TMP DP  RH WIND       PRES   REMARKS
CHATTANOOGA    CLOUDY    50  26  39 S5        30.04S
$$

SKY/WX REPORTED AS FAIR MEANS FEW OR NO CLOUDS BELOW
12 THOUSAND FEET.



USA.gov is the U.S. government's official web portal to all federal, state and local government web resources and services.